Find Starlink 34862

NORAD ID: 65180 Int'l Des: 2025-175 Owner: SPXS Country: US Constellation: starlink operational
LEOCIRCULARRETROGRADESSO

現在のビュー

3D地球を読み込み中...

About Starlink 34862

Starlink 34862 (NORAD 65180) is a starlink constellation satellite (v2 mini) launched Aug 14, 2025 by SPXS of US. It operates in LEO, CIRCULAR, RETROGRADE, SSO orbit with a mass of 575.00 kg.

次回通過

Passes for default location (London). Set your location on the main map for personalized predictions.

高度履歴

Loading altitude history...

軌道要素

1 65180U 25175G 26238.17877625 .00011657 00000-0 36273-3 0 9998
2 65180 97.2824 107.5381 0002446 84.4415 275.7106 15.33452811 58252
Epoch: Aug 26, 2026 • Age: 14 hours

現在のステータス

高度 483.7 km
遠地点 / 近地点 N/A
速度 7.62 km/s
衛星直下点 -44.42°S, 132.61°W
打ち上げ日 Aug 14, 2025
運用期間 1 year
タイプ internet

技術仕様

分類 Payload
質量 575.00 kg
乾燥質量 530.00 kg
総質量 575.00 kg
長さ 0.30 m
直径 4.10 m
スパン 29.00 m
形状 Box + pan
製造者 SPXS
バスタイプ Starlink V2MO
フェーズステータス In Orbit
所有者/国 SPXS/US

Most Searched